Regional Weather Roundup
Issued by NWS Newport/Morehead, NC

Current Version | Previous Version | Graphics & Text | Print | Product List | Glossary Off
Versions: 1 2 3 4 5 6 7 8 9 10 11 12 13 14 15 16 17 18 19 20 21 22 23 24 25 26 27 28 29 30 31 32 33 34 35 36 37 38 39 40 41 42 43 44 45 46 47 48 49 50

000
ASUS42 KMHX 231910
RWRMHX
WEATHER ROUNDUP FOR EASTERN NORTH CAROLINA
NATIONAL WEATHER SERVICE NEWPORT/MOREHEAD CITY NC
300 PM EDT TUE SEP 23 2014

NOTE: "FAIR" INDICATES FEW OR NO CLOUDS BELOW 12,000 FEET
WITH NO SIGNIFICANT WEATHER AND/OR OBSTRUCTIONS TO VISIBILITY

NCZ015>017-031-032-045>047-102-103-232000-
NORTH COAST

CITY           SKY/WX    TMP DP  RH WIND       PRES   REMARKS
EDENTON        CLOUDY    65  57  76 N9        30.28S
ELIZABETH CITY CLOUDY    65  56  72 N17       30.27F
KITTY HAWK     CLOUDY    67  58  73 N12G22    30.23F
MANTEO         CLOUDY    67  58  73 N15G22    30.24F

$$

NCZ045>047-081-094-103-104-232000-
CENTRAL COAST

CITY           SKY/WX    TMP DP  RH WIND       PRES   REMARKS
FRISCO         LGT RAIN  68  62  81 NE14G23   30.20S
SWANQUARTER      N/A     64 N/A N/A N9G16     30.18F

$$

NCZ095-097-098-100-101-232000-
SOUTHERN COAST

CITY           SKY/WX    TMP DP  RH WIND       PRES   REMARKS
BEAUFORT       CLOUDY    68  60  75 NE16G29   30.18F
CEDAR ISLAND     N/A     68 N/A N/A N33       30.24S
JACKSONVILLE   LGT RAIN  63  59  87 N16G22    30.20F
NEWPORT        NOT AVBL
PINEY ISLAND   LGT RAIN  69  59  70 N21G30    30.20S
WILMINGTON     LGT RAIN  64  60  87 N12       30.19S


$$

NCZ011>013-027>030-043-044-078>080-089-090>093-098-232000-
COASTAL PLAIN

CITY           SKY/WX    TMP DP  RH WIND       PRES   REMARKS
AHOSKIE        CLOUDY    64  51  64 N13       30.30F
CLINTON        LGT RAIN  65  57  75 N8G16     30.25F
ELIZABETHTOWN  CLOUDY    64  57  78 CALM      30.23F
GOLDSBORO      CLOUDY    63  58  83 N3G17     30.25S
GREENVILLE     CLOUDY    64  55  72 N14       30.27F
HAVELOCK       LGT RAIN  65  62  90 N14       30.22F
KENANSVILLE    LGT RAIN  63  55  75 N9        30.24F
KINSTON        CLOUDY    64  55  72 N10       30.25F
NEW BERN       LGT RAIN  64  59  83 N14G20    30.24F
RICHLANDS      CLOUDY    63  55  77 N14       30.22F
ROANOKE RAPIDS NOT AVBL
ROCKY MOUNT    CLOUDY    65  52  62 N10       30.29F
WASHINGTON     CLOUDY    63  56  77 N9G16     30.26F
WHITEVILLE     CLOUDY    63  57  81 N3        30.21F

$$

AMZ130-135-150-152-154-156-158-170-250-252-270-ANZ085-086-088-633-658-670-232000-
MARINE OBSERVATIONS

STATION/POSITION TIME  TEMP    WIND        PRES    WAVE   SWELL
                       AIR SEA DIR/SP/G            HT/PER HT/PER
                 (UTC) (F)     (DEG/KT/KT) (MB)    (FT/S) (FT/S)
CHESAPEAKE LIGHT 1800   64      30/ 14/ 15 1026.5
BUOY 44014       1900   68 75   30/ 14/ 19 1024.5    4/ 5   2/ 7
DUCK             1900   67 73   30/ 18/ 21 1024.0
2E DUCK          1800                        N/A     3/ 6
OREGON INLET     1900   69 73   20/ 16/ 20 1023.4
BUOY 44095       1900      74                N/A     5/ 6
20E OREGON INLET NOT AVBL
HATTERAS CG      NOT AVBL
DIAMOND BUOY     1900   73      10/ 23/ 29 1021.0    6/ 6
CAPE LOOKOUT     1800   69      20/ 18/ 22 1021.9
BEAUFORT LAB     1900   68 74   20/ 14/ 20 1021.6
30 SE NEW RIVER  1900   72 82   30/ 27/ 31 1019.8    7/ 7   2/12
5 SE WRIGHTSVILL 1800   64 78   20/ 21/ 25   N/A
BUOY 41002       1818   78 80  120/ 12/ 14 1018.3    3/ 7   2/ 7
BUOY 41004       1900   74 81   20/ 25/ 31 1018.0    7/ 6   2/13

$$


USA.gov is the U.S. government's official web portal to all federal, state and local government web resources and services.